Terminal Aerodrome Forecast
Issued by NWS

Home | Current Version | Previous Version | Text Only | Print | Product List | Glossary On
Versions: 1 2 3 4 5 6 7 8 9 10 11 12 13 14 15 16 17 18 19 20 21 22 23 24 25 26 27 28 29 30 31 32 33 34 35 36 37
000
FTUS43 KGLD 200521
TAFMCK
TAF
KMCK 200521Z 2006/2106 19010KT P6SM SCT080
     FM200700 VRB06KT P6SM VCTS SCT060CB BKN120
     FM201300 03012KT P6SM SCT030
     FM202000 07007KT P6SM SKC
     FM210100 VRB06KT P6SM SKC=

USA.gov is the U.S. government's official web portal to all federal, state and local government web resources and services.